#timestamp,LO_Frequency,Hit,StdDev 
1548201615.1,286047000.4,N
1548201635.9,286046998.9,N
1548201655.7,286046998.5,N
1548201675.5,286046998.1,N
1548201695.4,286047000.8,N
1548201715.2,286046998.6,N
1548201735.1,286046996.9,N
1548201736.0,286046996.9,N
1548201755.8,286046998.6,N
1548201775.6,286047002.3,N
1548201795.5,286047002.9,N
1548201815.3,286047005.8,N
1548201835.2,286047004.5,N
1548201855.9,286047004.9,N
1548201875.7,286047004.5,N
1548201895.6,286047003.7,N
1548201915.4,286047001.7,N
1548201935.2,286047006.0,N
1548201955.1,286047007.0,N
1548201956.0,286047007.0,N
1548201975.8,286047007.4,N
1548201995.7,286047004.8,N
1548202015.5,286047002.9,N
1548202035.3,286047001.6,N
1548202055.2,286047001.8,N
1548202075.0,286047001.3,N
1548202075.9,286047001.3,N
1548202095.8,286047002.8,N
1548202115.6,286047000.2,N
1548202135.4,286046999.9,N
1548202155.3,286047000.7,N
1548202175.1,286046996.8,N
1548202195.8,286046998.9,N
1548202215.7,286047000.0,N
1548202235.5,286047003.6,N
1548202255.4,286047003.8,N
1548202275.2,286047005.9,N
1548202295.0,286047003.7,N
1548202295.9,286047003.7,N
1548202315.8,286047004.1,N
1548202335.6,286047002.9,N
1548202355.5,286047005.5,N
1548202375.3,286047003.1,N
1548202395.1,286047005.8,N
1548202415.9,286047003.4,N
1548202435.7,286046998.3,N
1548202455.6,286046996.1,N
1548202475.4,286046997.6,N
1548202495.2,286046998.8,N
1548202515.1,286046998.3,N
1548202516.0,286046998.3,N
1548202535.8,286046999.5,N
1548202555.6,286047001.0,N
1548202575.5,286047000.6,N
1548202595.3,286046999.1,N
1548202615.1,286046997.9,N
1548202635.9,286046995.3,N
1548202655.7,286046996.6,N
1548202675.6,286047000.6,N
1548202695.4,286047002.8,N
1548202715.2,286047002.6,N
1548202735.1,286047002.8,N
1548202736.0,286047002.8,N
1548202755.8,286046999.0,N
1548202775.6,286046996.5,N
1548202795.5,286046998.9,N
1548202815.3,286046998.5,N
1548202835.2,286046995.8,N
1548202855.9,286046993.6,N
1548202875.7,286046994.5,N
1548202895.6,286046996.4,N
1548202915.4,286046995.5,N
1548202935.2,286046999.0,N
1548202955.1,286047000.7,N
1548202956.0,286047000.7,N
1548202975.8,286047001.0,N
1548202995.7,286047000.2,N
1548203015.5,286047004.0,N
1548203035.3,286047003.6,N
1548203055.2,286047002.9,N
1548203075.0,286047001.9,N
1548203075.9,286047001.9,N
1548203095.7,286047000.9,N
1548203115.6,286047002.2,N
1548203135.6,286047006.0,N
1548203155.4,286047003.6,N
1548203175.3,286047001.7,N
1548203195.1,286047002.9,N
1548203215.8,286047003.7,N
1548203235.7,286047000.1,N
1548203255.5,286047000.8,N
1548203275.4,286046999.0,N
1548203295.2,286046998.5,N
1548203315.0,286046998.2,N
1548203315.9,286046998.2,N
1548203335.8,286047000.2,N
1548203355.6,286047002.6,N
1548203375.4,286047002.3,N
1548203395.3,286047004.0,N
1548203415.1,286047001.5,N
1548203435.9,286046999.9,N
1548203455.6,286047002.8,N
1548203475.4,286047001.7,N
1548203495.3,286047004.2,N
1548203515.1,286047003.4,N
1548203535.8,286047002.8,N
1548203555.7,286047000.9,N
1548203575.5,286046998.9,N
1548203595.4,286046999.0,N
1548203615.2,286047001.8,N
1548203635.0,286047006.0,Y
1548203635.9,286047006.0,P
1548203655.8,286047005.9,N
1548203675.6,286047005.8,N
1548203695.5,286047003.2,N
1548203715.3,286047000.2,N
1548203735.1,286046998.5,N
1548203755.9,286046999.3,N
1548203775.7,286046995.1,N
1548203795.5,286046997.9,N
1548203815.4,286046996.9,N
1548203835.2,286046999.3,N
1548203855.1,286046997.0,N
1548203856.0,286046997.0,N
1548203875.8,286046995.3,N
1548203895.6,286046995.3,N
1548203915.5,286046999.6,N
1548203935.3,286047000.2,N
1548203955.1,286046998.4,N
1548203975.9,286046993.4,N
1548203995.7,286046994.0,N
1548204015.6,286046994.0,N
1548204035.4,286046993.5,N
1548204055.2,286046996.0,N
1548204075.1,286046992.3,N
1548204076.0,286046992.3,N
1548204095.8,286046989.0,N
1548204115.6,286046988.5,N
1548204135.5,286046993.1,N
1548204155.3,286046992.0,N
1548204175.2,286046990.5,N
1548204195.9,286046991.4,N
1548204215.7,286046990.6,N
1548204235.6,286046993.0,N
1548204255.4,286046994.6,N
1548204275.2,286046993.9,N
1548204295.1,286046994.6,N
1548204296.0,286046994.6,N
1548204315.8,286046986.3,Y
1548204335.7,286047000.5,P
1548204355.5,286047002.2,N
1548204375.3,286047000.4,N
1548204395.2,286047000.9,N
1548204415.0,286046998.5,N
1548204415.9,286046998.5,N
1548204435.8,286046998.7,N
1548204455.6,286047000.2,N
1548204475.4,286047001.9,N
1548204495.3,286046998.4,N
1548204515.1,286046996.7,N
1548204535.9,286046999.5,N
1548204555.7,286047002.8,N
1548204575.5,286047003.5,N
1548204595.4,286047002.1,N
1548204615.2,286046998.9,N
1548204665.4,286046998.7,E
1548204675.3,286047000.1,N
1548204695.1,286047006.8,P
1548204715.9,286047006.9,N
1548204735.7,286047006.2,N
1548204755.5,286047003.4,N
1548204775.4,286047002.3,N
1548204795.2,286046999.9,N
1548204815.1,286047002.7,N
1548204816.0,286047002.7,N
1548204835.8,286047004.7,N
1548204855.1,286047006.9,N
1548204875.8,286047007.3,N
1548204895.7,286047007.3,N
1548204915.5,286047005.9,N
1548204935.6,286047001.8,N
1548204955.4,286046999.9,N
1548204975.3,286047002.0,N
1548204995.1,286047002.9,N
1548205015.9,286047005.1,N
1548205035.7,286047005.2,N
1548205055.5,286047005.9,N
1548205075.4,286047004.1,N
1548205095.2,286047005.0,N
1548205115.1,286047006.3,N
1548205116.0,286047006.3,N
1548205135.8,286047006.1,N
1548205155.6,286047008.0,Y
1548205175.5,286047003.0,P
1548205195.3,286047005.2,P
